Location: Unspecified
(50.0077°N, 36.2988°E)
Time: 21:38:45
(UTC+00:00)

ISS - Pass Details

Date: 27 September 2020
Orbit: 417 x 420 km, 51.6° (Epoch: 27 October)

Event Time Altitude Azimuth Distance (km) Brightness Sun altitude
Rises 15:53:17 0° 266° (W) 2,365 2.4 -6.0°
Reaches altitude 10° 15:55:23 10° 269° (W) 1,503 0.9 -6.3°
Maximum altitude 15:58:45 68° 352° (N) 458 -3.5 -6.8°
Drops below altitude 10° 16:02:07 10° 77° (ENE) 1,506 -1.5 -7.4°
Enters shadow 16:02:19 - 77° (ENE) 1,587 -1.4 -7.4°
